Year,Month,Day,Hour,Minute,Value (Times are PST for temperature in C)
2011,07,23,00,00,12.30
2011,07,23,00,01,12.30
2011,07,23,00,02,12.30
2011,07,23,00,03,12.30
2011,07,23,00,04,12.30
2011,07,23,00,05,12.30
2011,07,23,00,06,12.30
2011,07,23,00,07,12.20
2011,07,23,00,08,12.20
2011,07,23,00,09,12.20
2011,07,23,00,10,12.20
2011,07,23,00,11,12.20
2011,07,23,00,12,12.20
2011,07,23,00,13,12.20
2011,07,23,00,14,12.20
2011,07,23,00,15,12.20
2011,07,23,00,16,12.20
2011,07,23,00,17,12.20
2011,07,23,00,18,12.10
2011,07,23,00,19,12.10
2011,07,23,00,20,12.10
2011,07,23,00,21,12.10
2011,07,23,00,22,12.10
2011,07,23,00,23,12.10
2011,07,23,00,24,12.10
2011,07,23,00,25,12.00
2011,07,23,00,26,12.00
2011,07,23,00,27,12.00
2011,07,23,00,28,12.00
2011,07,23,00,29,12.00
2011,07,23,00,30,12.00
2011,07,23,00,31,12.00
2011,07,23,00,32,11.90
2011,07,23,00,33,11.90
2011,07,23,00,34,11.90
2011,07,23,00,35,11.90
2011,07,23,00,36,11.90
2011,07,23,00,37,11.90
2011,07,23,00,38,11.80
2011,07,23,00,39,11.80
2011,07,23,00,40,11.80
2011,07,23,00,41,11.80
2011,07,23,00,42,11.80
2011,07,23,00,43,11.80
2011,07,23,00,44,11.80
2011,07,23,00,45,11.80
2011,07,23,00,46,11.80
2011,07,23,00,47,11.70
2011,07,23,00,48,11.70
2011,07,23,00,49,11.70
2011,07,23,00,50,11.70
2011,07,23,00,51,11.70
2011,07,23,00,52,11.70
2011,07,23,00,53,11.70
2011,07,23,00,54,11.70
2011,07,23,00,55,11.70
2011,07,23,00,56,11.70
2011,07,23,00,57,11.70
2011,07,23,00,58,11.70
2011,07,23,00,59,11.70
2011,07,23,01,00,11.60
2011,07,23,01,01,11.60
2011,07,23,01,02,11.60
2011,07,23,01,03,11.60
2011,07,23,01,04,11.60
2011,07,23,01,05,11.60
2011,07,23,01,06,11.60
2011,07,23,01,07,11.60
2011,07,23,01,08,11.60
2011,07,23,01,09,11.60
2011,07,23,01,10,11.50
2011,07,23,01,11,11.50
2011,07,23,01,12,11.50
2011,07,23,01,13,11.50
2011,07,23,01,14,11.50
2011,07,23,01,15,11.50
2011,07,23,01,16,11.50
2011,07,23,01,17,11.50
2011,07,23,01,18,11.50
2011,07,23,01,19,11.40
2011,07,23,01,20,11.40
2011,07,23,01,21,11.40
2011,07,23,01,22,11.40
2011,07,23,01,23,11.40
2011,07,23,01,24,11.40
2011,07,23,01,25,11.40
2011,07,23,01,26,11.40
2011,07,23,01,27,11.40
2011,07,23,01,28,11.40
2011,07,23,01,29,11.40
2011,07,23,01,30,11.40
2011,07,23,01,31,11.30
2011,07,23,01,32,11.30
2011,07,23,01,33,11.30
2011,07,23,01,34,11.30
2011,07,23,01,35,11.30
2011,07,23,01,36,11.30
2011,07,23,01,37,11.30
2011,07,23,01,38,11.30
2011,07,23,01,39,11.30
2011,07,23,01,40,11.20
2011,07,23,01,41,11.20
2011,07,23,01,42,11.20
2011,07,23,01,43,11.20
2011,07,23,01,44,11.20
2011,07,23,01,45,11.20
2011,07,23,01,46,11.20
2011,07,23,01,47,11.20
2011,07,23,01,48,11.20
2011,07,23,01,49,11.20
2011,07,23,01,50,11.20
2011,07,23,01,51,11.20
2011,07,23,01,52,11.20
2011,07,23,01,53,11.20
2011,07,23,01,54,11.10
2011,07,23,01,55,11.10
2011,07,23,01,56,11.10
2011,07,23,01,57,11.10
2011,07,23,01,58,11.10
2011,07,23,01,59,11.10
2011,07,23,02,00,11.10
2011,07,23,02,01,11.10
2011,07,23,02,02,11.10
2011,07,23,02,03,11.10
2011,07,23,02,04,11.00
2011,07,23,02,05,11.00
2011,07,23,02,06,11.00
2011,07,23,02,07,11.00
2011,07,23,02,08,10.90
2011,07,23,02,09,10.90
2011,07,23,02,10,10.90
2011,07,23,02,11,10.90
2011,07,23,02,12,10.90
2011,07,23,02,13,10.90
2011,07,23,02,14,10.90
2011,07,23,02,15,10.90
2011,07,23,02,16,10.90
2011,07,23,02,17,10.90
2011,07,23,02,18,10.80
2011,07,23,02,19,10.80
2011,07,23,02,20,10.80
2011,07,23,02,21,10.80
2011,07,23,02,22,10.80
2011,07,23,02,23,10.80
2011,07,23,02,24,10.80
2011,07,23,02,25,10.80
2011,07,23,02,26,10.80
2011,07,23,02,27,10.80
2011,07,23,02,28,10.80
2011,07,23,02,29,10.80
2011,07,23,02,30,10.80
2011,07,23,02,31,10.80
2011,07,23,02,32,10.80
2011,07,23,02,33,10.80
2011,07,23,02,34,10.70
2011,07,23,02,35,10.70
2011,07,23,02,36,10.70
2011,07,23,02,37,10.70
2011,07,23,02,38,10.70
2011,07,23,02,39,10.70
2011,07,23,02,40,10.70
2011,07,23,02,41,10.70
2011,07,23,02,42,10.70
2011,07,23,02,43,10.70
2011,07,23,02,44,10.70
2011,07,23,02,45,10.60
2011,07,23,02,46,10.60
2011,07,23,02,47,10.60
2011,07,23,02,48,10.60
2011,07,23,02,49,10.60
2011,07,23,02,50,10.60
2011,07,23,02,51,10.60
2011,07,23,02,52,10.60
2011,07,23,02,53,10.50
2011,07,23,02,54,10.50
2011,07,23,02,55,10.50
2011,07,23,02,56,10.50
2011,07,23,02,57,10.40
2011,07,23,02,58,10.40
2011,07,23,02,59,10.40
2011,07,23,03,00,10.40
2011,07,23,03,01,10.40
2011,07,23,03,02,10.40
2011,07,23,03,03,10.40
2011,07,23,03,04,10.40
2011,07,23,03,05,10.40
2011,07,23,03,06,10.30
2011,07,23,03,07,10.30
2011,07,23,03,08,10.30
2011,07,23,03,09,10.30
2011,07,23,03,10,10.30
2011,07,23,03,11,10.30
2011,07,23,03,12,10.30
2011,07,23,03,13,10.20
2011,07,23,03,14,10.20
2011,07,23,03,15,10.20
2011,07,23,03,16,10.20
2011,07,23,03,17,10.20
2011,07,23,03,18,10.20
2011,07,23,03,19,10.20
2011,07,23,03,20,10.20
2011,07,23,03,21,10.20
2011,07,23,03,22,10.20
2011,07,23,03,23,10.20
2011,07,23,03,24,10.30
2011,07,23,03,25,10.30
2011,07,23,03,26,10.30
2011,07,23,03,27,10.30
2011,07,23,03,28,10.30
2011,07,23,03,29,10.30
2011,07,23,03,30,10.30
2011,07,23,03,31,10.30
2011,07,23,03,32,10.30
2011,07,23,03,33,10.30
2011,07,23,03,34,10.30
2011,07,23,03,35,10.30
2011,07,23,03,36,10.30
2011,07,23,03,37,10.30
2011,07,23,03,38,10.30
2011,07,23,03,39,10.20
2011,07,23,03,40,10.20
2011,07,23,03,41,10.20
2011,07,23,03,42,10.20
2011,07,23,03,43,10.20
2011,07,23,03,44,10.20
2011,07,23,03,45,10.20
2011,07,23,03,46,10.20
2011,07,23,03,47,10.20
2011,07,23,03,48,10.20
2011,07,23,03,49,10.20
2011,07,23,03,50,10.20
2011,07,23,03,51,10.20
2011,07,23,03,52,10.20
2011,07,23,03,53,10.20
2011,07,23,03,54,10.20
2011,07,23,03,55,10.20
2011,07,23,03,56,10.20
2011,07,23,03,57,10.20
2011,07,23,03,58,10.20
2011,07,23,03,59,10.20
2011,07,23,04,00,10.20
2011,07,23,04,01,10.20
2011,07,23,04,02,10.20
2011,07,23,04,03,10.20
2011,07,23,04,04,10.20
2011,07,23,04,05,10.10
2011,07,23,04,06,10.10
2011,07,23,04,07,10.10
2011,07,23,04,08,10.10
2011,07,23,04,09,10.10
2011,07,23,04,10,10.10
2011,07,23,04,11,10.10
2011,07,23,04,12,10.10
2011,07,23,04,13,10.10
2011,07,23,04,14,10.10
2011,07,23,04,15,10.10
2011,07,23,04,16,10.10
2011,07,23,04,17,10.10
2011,07,23,04,18,10.00
2011,07,23,04,19,10.00
2011,07,23,04,20,10.00
2011,07,23,04,21,10.00
2011,07,23,04,22,10.00
2011,07,23,04,23,10.00
2011,07,23,04,24,10.00
2011,07,23,04,25,10.00
2011,07,23,04,26,10.00
2011,07,23,04,27,10.00
2011,07,23,04,28,10.00
2011,07,23,04,29,10.00
2011,07,23,04,30,10.00
2011,07,23,04,31,10.00
2011,07,23,04,32,10.00
2011,07,23,04,33,10.00
2011,07,23,04,34,10.00
2011,07,23,04,35,10.00
2011,07,23,04,36,10.00
2011,07,23,04,37,10.00
2011,07,23,04,38,10.00
2011,07,23,04,39,9.90
2011,07,23,04,40,9.90
2011,07,23,04,41,10.00
2011,07,23,04,42,9.90
2011,07,23,04,43,9.90
2011,07,23,04,44,10.00
2011,07,23,04,45,10.00
2011,07,23,04,46,10.00
2011,07,23,04,47,10.00
2011,07,23,04,48,10.00
2011,07,23,04,49,10.00
2011,07,23,04,50,10.00
2011,07,23,04,51,10.00
2011,07,23,04,52,9.90
2011,07,23,04,53,9.90
2011,07,23,04,54,9.90
2011,07,23,04,55,9.90
2011,07,23,04,56,9.90
2011,07,23,04,57,9.90
2011,07,23,04,58,9.90
2011,07,23,04,59,9.80
2011,07,23,05,00,9.80
2011,07,23,05,01,9.80
2011,07,23,05,02,9.80
2011,07,23,05,03,9.80
2011,07,23,05,04,9.80
2011,07,23,05,05,9.80
2011,07,23,05,06,9.80
2011,07,23,05,07,9.80
2011,07,23,05,08,9.80
2011,07,23,05,09,9.80
2011,07,23,05,10,9.80
2011,07,23,05,11,9.80
2011,07,23,05,12,9.80
2011,07,23,05,13,9.80
2011,07,23,05,14,9.80
2011,07,23,05,15,9.80
2011,07,23,05,16,9.80
2011,07,23,05,17,9.80
2011,07,23,05,18,9.70
2011,07,23,05,19,9.70
2011,07,23,05,20,9.70
2011,07,23,05,21,9.70
2011,07,23,05,22,9.70
2011,07,23,05,23,9.70
2011,07,23,05,24,9.70
2011,07,23,05,25,9.70
2011,07,23,05,26,9.70
2011,07,23,05,27,9.70
2011,07,23,05,28,9.70
2011,07,23,05,29,9.70
2011,07,23,05,30,9.70
2011,07,23,05,31,9.70
2011,07,23,05,32,9.70
2011,07,23,05,33,9.70
2011,07,23,05,34,9.70
2011,07,23,05,35,9.70
2011,07,23,05,36,9.70
2011,07,23,05,37,9.70
2011,07,23,05,38,9.70
2011,07,23,05,39,9.70
2011,07,23,05,40,9.70
2011,07,23,05,41,9.70
2011,07,23,05,42,9.70
2011,07,23,05,43,9.70
2011,07,23,05,44,9.70
2011,07,23,05,45,9.70
2011,07,23,05,46,9.70
2011,07,23,05,47,9.70
2011,07,23,05,48,9.70
2011,07,23,05,49,9.70
2011,07,23,05,50,9.70
2011,07,23,05,51,9.70
2011,07,23,05,52,9.70
2011,07,23,05,53,9.70
2011,07,23,05,54,9.70
2011,07,23,05,55,9.70
2011,07,23,05,56,9.70
2011,07,23,05,57,9.70
2011,07,23,05,58,9.80
2011,07,23,05,59,9.80
2011,07,23,06,00,9.80
2011,07,23,06,01,9.80
2011,07,23,06,02,9.80
2011,07,23,06,03,9.80
2011,07,23,06,04,9.80
2011,07,23,06,05,9.80
2011,07,23,06,06,9.80
2011,07,23,06,07,9.80
2011,07,23,06,08,9.80
2011,07,23,06,09,9.80
2011,07,23,06,10,9.80
2011,07,23,06,11,9.90
2011,07,23,06,12,9.90
2011,07,23,06,13,9.90
2011,07,23,06,14,9.90
2011,07,23,06,15,9.90
2011,07,23,06,16,9.90
2011,07,23,06,17,10.00
2011,07,23,06,18,10.00
2011,07,23,06,19,10.00
2011,07,23,06,20,10.00
2011,07,23,06,21,10.00
2011,07,23,06,22,10.00
2011,07,23,06,23,10.00
2011,07,23,06,24,10.10
2011,07,23,06,25,10.10
2011,07,23,06,26,10.10
2011,07,23,06,27,10.10
2011,07,23,06,28,10.10
2011,07,23,06,29,10.10
2011,07,23,06,30,10.10
2011,07,23,06,31,10.20
2011,07,23,06,32,10.20
2011,07,23,06,33,10.30
2011,07,23,06,34,10.30
2011,07,23,06,35,10.40
2011,07,23,06,36,10.40
2011,07,23,06,37,10.50
2011,07,23,06,38,10.50
2011,07,23,06,39,10.50
2011,07,23,06,40,10.50
2011,07,23,06,41,10.60
2011,07,23,06,42,10.60
2011,07,23,06,43,10.60
2011,07,23,06,44,10.60
2011,07,23,06,45,10.60
2011,07,23,06,46,10.70
2011,07,23,06,47,10.70
2011,07,23,06,48,10.70
2011,07,23,06,49,10.70
2011,07,23,06,50,10.70
2011,07,23,06,51,10.80
2011,07,23,06,52,10.80
2011,07,23,06,53,10.90
2011,07,23,06,54,10.90
2011,07,23,06,55,10.90
2011,07,23,06,56,10.90
2011,07,23,06,57,10.90
2011,07,23,06,58,10.90
2011,07,23,06,59,10.90
2011,07,23,07,00,10.90
2011,07,23,07,01,10.90
2011,07,23,07,02,10.90
2011,07,23,07,03,10.90
2011,07,23,07,04,10.90
2011,07,23,07,05,10.90
2011,07,23,07,06,10.90
2011,07,23,07,07,10.90
2011,07,23,07,08,10.90
2011,07,23,07,09,10.90
2011,07,23,07,10,10.80
2011,07,23,07,11,10.80
2011,07,23,07,12,10.80
2011,07,23,07,13,10.80
2011,07,23,07,14,10.90
2011,07,23,07,15,10.90
2011,07,23,07,16,10.90
2011,07,23,07,17,10.90
2011,07,23,07,18,10.90
2011,07,23,07,19,11.00
2011,07,23,07,20,11.00
2011,07,23,07,21,11.00
2011,07,23,07,22,11.10
2011,07,23,07,23,11.10
2011,07,23,07,24,11.10
2011,07,23,07,25,11.10
2011,07,23,07,26,11.20
2011,07,23,07,27,11.20
2011,07,23,07,28,11.30
2011,07,23,07,29,11.30
2011,07,23,07,30,11.40
2011,07,23,07,31,11.40
2011,07,23,07,32,11.50
2011,07,23,07,33,11.50
2011,07,23,07,34,11.60
2011,07,23,07,35,11.70
2011,07,23,07,36,11.70
2011,07,23,07,37,11.70
2011,07,23,07,38,11.80
2011,07,23,07,39,11.80
2011,07,23,07,40,11.80
2011,07,23,07,41,11.80
2011,07,23,07,42,11.80
2011,07,23,07,43,11.70
2011,07,23,07,44,11.70
2011,07,23,07,45,11.70
2011,07,23,07,46,11.60
2011,07,23,07,47,11.60
2011,07,23,07,48,11.60
2011,07,23,07,49,11.60
2011,07,23,07,50,11.60
2011,07,23,07,51,11.60
2011,07,23,07,52,11.60
2011,07,23,07,53,11.60
2011,07,23,07,54,11.60
2011,07,23,07,55,11.60
2011,07,23,07,56,11.60
2011,07,23,07,57,11.60
2011,07,23,07,58,11.60
2011,07,23,07,59,11.70
2011,07,23,08,00,11.70
2011,07,23,08,01,11.80
2011,07,23,08,02,11.80
2011,07,23,08,03,11.80
2011,07,23,08,04,11.90
2011,07,23,08,05,11.90
2011,07,23,08,06,12.00
2011,07,23,08,07,12.10
2011,07,23,08,08,12.10
2011,07,23,08,09,12.20
2011,07,23,08,10,12.20
2011,07,23,08,11,12.30
2011,07,23,08,12,12.30
2011,07,23,08,13,12.40
2011,07,23,08,14,12.40
2011,07,23,08,15,12.50
2011,07,23,08,16,12.50
2011,07,23,08,17,12.60
2011,07,23,08,18,12.60
2011,07,23,08,19,12.70
2011,07,23,08,20,12.70
2011,07,23,08,21,12.80
2011,07,23,08,22,12.90
2011,07,23,08,23,12.90
2011,07,23,08,24,12.90
2011,07,23,08,25,12.90
2011,07,23,08,26,13.00
2011,07,23,08,27,13.10
2011,07,23,08,28,13.00
2011,07,23,08,29,13.10
2011,07,23,08,30,13.10
2011,07,23,08,31,13.10
2011,07,23,08,32,13.20
2011,07,23,08,33,13.20
2011,07,23,08,34,13.20
2011,07,23,08,35,13.20
2011,07,23,08,36,13.20
2011,07,23,08,37,13.20
2011,07,23,08,38,13.30
2011,07,23,08,39,13.30
2011,07,23,08,40,13.30
2011,07,23,08,41,13.40
2011,07,23,08,42,13.40
2011,07,23,08,43,13.40
2011,07,23,08,44,13.40
2011,07,23,08,45,13.40
2011,07,23,08,46,13.40
2011,07,23,08,47,13.50
2011,07,23,08,48,13.50
2011,07,23,08,49,13.50
2011,07,23,08,50,13.60
2011,07,23,08,51,13.60
2011,07,23,08,52,13.60
2011,07,23,08,53,13.60
2011,07,23,08,54,13.60
2011,07,23,08,55,13.70
2011,07,23,08,56,13.70
2011,07,23,08,57,13.70
2011,07,23,08,58,13.80
2011,07,23,08,59,13.90
2011,07,23,09,00,14.00
2011,07,23,09,01,14.10
2011,07,23,09,02,14.10
2011,07,23,09,03,14.20
2011,07,23,09,04,14.30
2011,07,23,09,05,14.30
2011,07,23,09,06,14.40
2011,07,23,09,07,14.50
2011,07,23,09,08,14.60
2011,07,23,09,09,14.70
2011,07,23,09,10,14.90
2011,07,23,09,11,14.90
2011,07,23,09,12,15.00
2011,07,23,09,13,15.00
2011,07,23,09,14,15.10
2011,07,23,09,15,15.10
2011,07,23,09,16,15.10
2011,07,23,09,17,15.10
2011,07,23,09,18,15.10
2011,07,23,09,19,15.10
2011,07,23,09,20,15.00
2011,07,23,09,21,15.00
2011,07,23,09,22,14.90
2011,07,23,09,23,14.90
2011,07,23,09,24,15.00
2011,07,23,09,25,15.00
2011,07,23,09,26,15.10
2011,07,23,09,27,15.10
2011,07,23,09,28,15.20
2011,07,23,09,29,15.20
2011,07,23,09,30,15.30
2011,07,23,09,31,15.30
2011,07,23,09,32,15.40
2011,07,23,09,33,15.50
2011,07,23,09,34,15.60
2011,07,23,09,35,15.60
2011,07,23,09,36,15.60
2011,07,23,09,37,15.50
2011,07,23,09,38,15.50
2011,07,23,09,39,15.40
2011,07,23,09,40,15.40
2011,07,23,09,41,15.40
2011,07,23,09,42,15.40
2011,07,23,09,43,15.50
2011,07,23,09,44,15.50
2011,07,23,09,45,15.40
2011,07,23,09,46,15.40
2011,07,23,09,47,15.30
2011,07,23,09,48,15.20
2011,07,23,09,49,15.10
2011,07,23,09,50,15.00
2011,07,23,09,51,14.90
2011,07,23,09,52,14.80
2011,07,23,09,53,14.80
2011,07,23,09,54,14.80
2011,07,23,09,55,14.80
2011,07,23,09,56,14.80
2011,07,23,09,57,14.80
2011,07,23,09,58,14.90
2011,07,23,09,59,14.90
2011,07,23,10,00,14.90
2011,07,23,10,01,14.80
2011,07,23,10,02,14.80
2011,07,23,10,03,14.90
2011,07,23,10,04,15.00
2011,07,23,10,05,15.10
2011,07,23,10,06,15.10
2011,07,23,10,07,15.20
2011,07,23,10,08,15.20
2011,07,23,10,09,15.20
2011,07,23,10,10,15.20
2011,07,23,10,11,15.30
2011,07,23,10,12,15.20
2011,07,23,10,13,15.20
2011,07,23,10,14,15.20
2011,07,23,10,15,15.20
2011,07,23,10,16,15.30
2011,07,23,10,17,15.30
2011,07,23,10,18,15.30
2011,07,23,10,19,15.30
2011,07,23,10,20,15.30
2011,07,23,10,21,15.30
2011,07,23,10,22,15.40
2011,07,23,10,23,15.40
2011,07,23,10,24,15.50
2011,07,23,10,25,15.40
2011,07,23,10,26,15.40
2011,07,23,10,27,15.30
2011,07,23,10,28,15.30
2011,07,23,10,29,15.20
2011,07,23,10,30,15.10
2011,07,23,10,31,15.10
2011,07,23,10,32,15.00
2011,07,23,10,33,15.00
2011,07,23,10,34,15.00
2011,07,23,10,35,15.00
2011,07,23,10,36,15.00
2011,07,23,10,37,14.90
2011,07,23,10,38,14.90
2011,07,23,10,39,14.90
2011,07,23,10,40,14.90
2011,07,23,10,41,14.90
2011,07,23,10,42,14.90
2011,07,23,10,43,14.90
2011,07,23,10,44,14.90
2011,07,23,10,45,15.00
2011,07,23,10,46,15.00
2011,07,23,10,47,15.00
2011,07,23,10,48,15.10
2011,07,23,10,49,15.20
2011,07,23,10,50,15.30
2011,07,23,10,51,15.40
2011,07,23,10,52,15.40
2011,07,23,10,53,15.50
2011,07,23,10,54,15.50
2011,07,23,10,55,15.40
2011,07,23,10,56,15.40
2011,07,23,10,57,15.30
2011,07,23,10,58,15.40
2011,07,23,10,59,15.50
2011,07,23,11,00,15.60
2011,07,23,11,01,15.70
2011,07,23,11,02,15.70
2011,07,23,11,03,15.70
2011,07,23,11,04,15.70
2011,07,23,11,05,15.70
2011,07,23,11,06,15.70
2011,07,23,11,07,15.70
2011,07,23,11,08,15.70
2011,07,23,11,09,15.70
2011,07,23,11,10,15.70
2011,07,23,11,11,15.70
2011,07,23,11,12,15.70
2011,07,23,11,13,15.70
2011,07,23,11,14,15.60
2011,07,23,11,15,15.60
2011,07,23,11,16,15.60
2011,07,23,11,17,15.70
2011,07,23,11,18,15.70
2011,07,23,11,19,15.60
2011,07,23,11,20,15.60
2011,07,23,11,21,15.60
2011,07,23,11,22,15.60
2011,07,23,11,23,15.70
2011,07,23,11,24,15.70
2011,07,23,11,25,15.70
2011,07,23,11,26,15.70
2011,07,23,11,27,15.70
2011,07,23,11,28,15.70
2011,07,23,11,29,15.80
2011,07,23,11,30,15.80
2011,07,23,11,31,15.80
2011,07,23,11,32,15.90
2011,07,23,11,33,15.90
2011,07,23,11,34,16.00
2011,07,23,11,35,16.10
2011,07,23,11,36,16.20
2011,07,23,11,37,16.40
2011,07,23,11,38,16.40
2011,07,23,11,39,16.50
2011,07,23,11,40,16.50
2011,07,23,11,41,16.50
2011,07,23,11,42,16.50
2011,07,23,11,43,16.60
2011,07,23,11,44,16.70
2011,07,23,11,45,16.80
2011,07,23,11,46,16.80
2011,07,23,11,47,16.80
2011,07,23,11,48,16.80
2011,07,23,11,49,16.70
2011,07,23,11,50,16.70
2011,07,23,11,51,16.70
2011,07,23,11,52,16.60
2011,07,23,11,53,16.60
2011,07,23,11,54,16.50
2011,07,23,11,55,16.50
2011,07,23,11,56,16.40
2011,07,23,11,57,16.30
2011,07,23,11,58,16.30
2011,07,23,11,59,16.30
2011,07,23,12,00,16.30
2011,07,23,12,01,16.30
2011,07,23,12,02,16.40
2011,07,23,12,03,16.40
2011,07,23,12,04,16.40
2011,07,23,12,05,16.40
2011,07,23,12,06,16.50
2011,07,23,12,07,16.40
2011,07,23,12,08,16.40
2011,07,23,12,09,16.30
2011,07,23,12,10,16.20
2011,07,23,12,11,16.20
2011,07,23,12,12,16.20
2011,07,23,12,13,16.10
2011,07,23,12,14,16.10
2011,07,23,12,15,16.10
2011,07,23,12,16,16.10
2011,07,23,12,17,16.10
2011,07,23,12,18,16.10
2011,07,23,12,19,16.10
2011,07,23,12,20,16.10
2011,07,23,12,21,16.20
2011,07,23,12,22,16.20
2011,07,23,12,23,16.30
2011,07,23,12,24,16.20
2011,07,23,12,25,16.20
2011,07,23,12,26,16.20
2011,07,23,12,27,16.10
2011,07,23,12,28,16.10
2011,07,23,12,29,16.10
2011,07,23,12,30,16.00
2011,07,23,12,31,16.00
2011,07,23,12,32,15.90
2011,07,23,12,33,15.90
2011,07,23,12,34,16.00
2011,07,23,12,35,15.90
2011,07,23,12,36,15.80
2011,07,23,12,37,15.80
2011,07,23,12,38,15.80
2011,07,23,12,39,15.80
2011,07,23,12,40,15.80
2011,07,23,12,41,15.70
2011,07,23,12,42,15.70
2011,07,23,12,43,15.70
2011,07,23,12,44,15.70
2011,07,23,12,45,15.60
2011,07,23,12,46,15.50
2011,07,23,12,47,15.50
2011,07,23,12,48,15.50
2011,07,23,12,49,15.60
2011,07,23,12,50,15.60
2011,07,23,12,51,15.60
2011,07,23,12,52,15.50
2011,07,23,12,53,15.40
2011,07,23,12,54,15.20
2011,07,23,12,55,15.10
2011,07,23,12,56,14.90
2011,07,23,12,57,14.90
2011,07,23,12,58,14.90
2011,07,23,12,59,14.80
2011,07,23,13,00,14.80
2011,07,23,13,01,14.80
2011,07,23,13,02,14.80
2011,07,23,13,03,14.80
2011,07,23,13,04,14.70
2011,07,23,13,05,14.60
2011,07,23,13,06,14.70
2011,07,23,13,07,14.60
2011,07,23,13,08,14.60
2011,07,23,13,09,14.60
2011,07,23,13,10,14.50
2011,07,23,13,11,14.40
2011,07,23,13,12,14.40
2011,07,23,13,13,14.40
2011,07,23,13,14,14.40
2011,07,23,13,15,14.40
2011,07,23,13,16,14.50
2011,07,23,13,17,14.50
2011,07,23,13,18,14.50
2011,07,23,13,19,14.50
2011,07,23,13,20,14.50
2011,07,23,13,21,14.60
2011,07,23,13,22,14.60
2011,07,23,13,23,14.60
2011,07,23,13,24,14.60
2011,07,23,13,25,14.60
2011,07,23,13,26,14.60
2011,07,23,13,27,14.60
2011,07,23,13,28,14.60
2011,07,23,13,29,14.60
2011,07,23,13,30,14.70
2011,07,23,13,31,14.70
2011,07,23,13,32,14.70
2011,07,23,13,33,14.70
2011,07,23,13,34,14.80
2011,07,23,13,35,14.80
2011,07,23,13,36,14.80
2011,07,23,13,37,14.80
2011,07,23,13,38,14.90
2011,07,23,13,39,14.90
2011,07,23,13,40,14.90
2011,07,23,13,41,14.90
2011,07,23,13,42,14.90
2011,07,23,13,43,15.00
2011,07,23,13,44,15.00
2011,07,23,13,45,15.00
2011,07,23,13,46,15.10
2011,07,23,13,47,15.10
2011,07,23,13,48,15.10
2011,07,23,13,49,15.10
2011,07,23,13,50,15.10
2011,07,23,13,51,15.20
2011,07,23,13,52,15.20
2011,07,23,13,53,15.20
2011,07,23,13,54,15.20
2011,07,23,13,55,15.20
2011,07,23,13,56,15.20
2011,07,23,13,57,15.20
2011,07,23,13,58,15.20
2011,07,23,13,59,15.30
2011,07,23,14,00,15.30
2011,07,23,14,01,15.30
2011,07,23,14,02,15.40
2011,07,23,14,03,15.40
2011,07,23,14,04,15.50
2011,07,23,14,05,15.60
2011,07,23,14,06,15.70
2011,07,23,14,07,15.80
2011,07,23,14,08,15.90
2011,07,23,14,09,15.90
2011,07,23,14,10,16.00
2011,07,23,14,11,16.00
2011,07,23,14,12,16.00
2011,07,23,14,13,16.10
2011,07,23,14,14,16.10
2011,07,23,14,15,16.10
2011,07,23,14,16,16.10
2011,07,23,14,17,16.10
2011,07,23,14,18,16.20
2011,07,23,14,19,16.30
2011,07,23,14,20,16.30
2011,07,23,14,21,16.30
2011,07,23,14,22,16.30
2011,07,23,14,23,16.30
2011,07,23,14,24,16.20
2011,07,23,14,25,16.20
2011,07,23,14,26,16.20
2011,07,23,14,27,16.20
2011,07,23,14,28,16.10
2011,07,23,14,29,16.10
2011,07,23,14,30,16.10
2011,07,23,14,31,16.10
2011,07,23,14,32,16.10
2011,07,23,14,33,16.10
2011,07,23,14,34,16.10
2011,07,23,14,35,16.10
2011,07,23,14,36,16.20
2011,07,23,14,37,16.20
2011,07,23,14,38,16.30
2011,07,23,14,39,16.20
2011,07,23,14,40,16.20
2011,07,23,14,41,16.20
2011,07,23,14,42,16.20
2011,07,23,14,43,16.20
2011,07,23,14,44,16.10
2011,07,23,14,45,16.10
2011,07,23,14,46,16.20
2011,07,23,14,47,16.30
2011,07,23,14,48,16.30
2011,07,23,14,49,16.40
2011,07,23,14,50,16.40
2011,07,23,14,51,16.40
2011,07,23,14,52,16.40
2011,07,23,14,53,16.40
2011,07,23,14,54,16.50
2011,07,23,14,55,16.60
2011,07,23,14,56,16.60
2011,07,23,14,57,16.70
2011,07,23,14,58,16.80
2011,07,23,14,59,16.90
2011,07,23,15,00,16.80
2011,07,23,15,01,16.80
2011,07,23,15,02,16.80
2011,07,23,15,03,16.80
2011,07,23,15,04,16.80
2011,07,23,15,05,16.80
2011,07,23,15,06,16.90
2011,07,23,15,07,16.90
2011,07,23,15,08,16.90
2011,07,23,15,09,16.90
2011,07,23,15,10,17.00
2011,07,23,15,11,17.00
2011,07,23,15,12,17.10
2011,07,23,15,13,17.10
2011,07,23,15,14,17.10
2011,07,23,15,15,17.20
2011,07,23,15,16,17.20
2011,07,23,15,17,17.30
2011,07,23,15,18,17.20
2011,07,23,15,19,17.30
2011,07,23,15,20,17.30
2011,07,23,15,21,17.30
2011,07,23,15,22,17.40
2011,07,23,15,23,17.40
2011,07,23,15,24,17.40
2011,07,23,15,25,17.40
2011,07,23,15,26,17.50
2011,07,23,15,27,17.50
2011,07,23,15,28,17.60
2011,07,23,15,29,17.50
2011,07,23,15,30,17.50
2011,07,23,15,31,17.40
2011,07,23,15,32,17.40
2011,07,23,15,33,17.50
2011,07,23,15,34,17.60
2011,07,23,15,35,17.60
2011,07,23,15,36,17.70
2011,07,23,15,37,17.70
2011,07,23,15,38,17.60
2011,07,23,15,39,17.60
2011,07,23,15,40,17.60
2011,07,23,15,41,17.60
2011,07,23,15,42,17.60
2011,07,23,15,43,17.70
2011,07,23,15,44,17.70
2011,07,23,15,45,17.70
2011,07,23,15,46,17.70
2011,07,23,15,47,17.60
2011,07,23,15,48,17.50
2011,07,23,15,49,17.50
2011,07,23,15,50,17.40
2011,07,23,15,51,17.30
2011,07,23,15,52,17.30
2011,07,23,15,53,17.30
2011,07,23,15,54,17.40
2011,07,23,15,55,17.40
2011,07,23,15,56,17.40
2011,07,23,15,57,17.40
2011,07,23,15,58,17.30
2011,07,23,15,59,17.30
2011,07,23,16,00,17.20
2011,07,23,16,01,17.20
2011,07,23,16,02,17.10
2011,07,23,16,03,17.10
2011,07,23,16,04,17.00
2011,07,23,16,05,16.90
2011,07,23,16,06,16.90
2011,07,23,16,07,16.80
2011,07,23,16,08,16.70
2011,07,23,16,09,16.60
2011,07,23,16,10,16.60
2011,07,23,16,11,16.50
2011,07,23,16,12,16.40
2011,07,23,16,13,16.30
2011,07,23,16,14,16.20
2011,07,23,16,15,16.20
2011,07,23,16,16,16.30
2011,07,23,16,17,16.30
2011,07,23,16,18,16.30
2011,07,23,16,19,16.30
2011,07,23,16,20,16.30
2011,07,23,16,21,16.30
2011,07,23,16,22,16.30
2011,07,23,16,23,16.30
2011,07,23,16,24,16.30
2011,07,23,16,25,16.20
2011,07,23,16,26,16.10
2011,07,23,16,27,16.10
2011,07,23,16,28,16.10
2011,07,23,16,29,16.20
2011,07,23,16,30,16.20
2011,07,23,16,31,16.20
2011,07,23,16,32,16.30
2011,07,23,16,33,16.40
2011,07,23,16,34,16.50
2011,07,23,16,35,16.50
2011,07,23,16,36,16.40
2011,07,23,16,37,16.40
2011,07,23,16,38,16.40
2011,07,23,16,39,16.40
2011,07,23,16,40,16.40
2011,07,23,16,41,16.40
2011,07,23,16,42,16.50
2011,07,23,16,43,16.70
2011,07,23,16,44,16.80
2011,07,23,16,45,16.80
2011,07,23,16,46,16.80
2011,07,23,16,47,16.70
2011,07,23,16,48,16.60
2011,07,23,16,49,16.60
2011,07,23,16,50,16.60
2011,07,23,16,51,16.50
2011,07,23,16,52,16.50
2011,07,23,16,53,16.50
2011,07,23,16,54,16.40
2011,07,23,16,55,16.40
2011,07,23,16,56,16.40
2011,07,23,16,57,16.50
2011,07,23,16,58,16.60
2011,07,23,16,59,16.60
2011,07,23,17,00,16.50
2011,07,23,17,01,16.50
2011,07,23,17,02,16.50
2011,07,23,17,03,16.50
2011,07,23,17,04,16.40
2011,07,23,17,05,16.40
2011,07,23,17,06,16.50
2011,07,23,17,07,16.60
2011,07,23,17,08,16.70
2011,07,23,17,09,16.80
2011,07,23,17,10,16.80
2011,07,23,17,11,16.80
2011,07,23,17,12,16.80
2011,07,23,17,13,16.80
2011,07,23,17,14,16.90
2011,07,23,17,15,16.90
2011,07,23,17,16,17.00
2011,07,23,17,17,17.00
2011,07,23,17,18,17.10
2011,07,23,17,19,17.00
2011,07,23,17,20,17.00
2011,07,23,17,21,17.00
2011,07,23,17,22,16.90
2011,07,23,17,23,17.00